#timestamp,LO_Frequency,Hit,StdDev 
1645963215.1,286046992.4,N
1645963216.0,286046992.4,N
1645963235.8,286046995.0,N
1645963255.6,286046996.3,N
1645963275.5,286046993.9,N
1645963295.3,286046997.7,N
1645963315.1,286047002.2,N
1645963335.9,286047001.2,N
1645963355.7,286046997.6,N
1645963375.6,286046998.0,N
1645963395.4,286046995.8,N
1645963415.2,286046999.5,N
1645963435.1,286046994.5,N
1645963436.0,286046994.5,N
1645963455.8,286046992.4,N
1645963475.6,286046991.6,N
1645963495.5,286046992.5,N
1645963515.3,286046986.3,N
1645963535.2,286046987.0,N
1645963555.9,286046985.9,N
1645963575.7,286046984.2,N
1645963595.6,286046988.8,N
1645963615.4,286046990.9,N
1645963635.2,286046992.4,N
1645963655.1,286046988.6,N
1645963656.0,286046988.6,N
1645963675.8,286046988.5,N
1645963695.7,286046994.1,N
1645963715.5,286046995.9,N
1645963735.3,286046988.9,N
1645963755.2,286046992.1,N
1645963775.0,286046988.4,N
1645963775.9,286046988.4,N
1645963795.7,286046982.4,Y
1645963815.6,286046994.6,P
1645963835.4,286046991.5,P
1645963855.3,286046990.1,P
1645963875.1,286046989.0,Y
1645963895.8,286046998.4,P
1645963915.7,286046998.6,N
1645963935.5,286046999.4,N
1645963955.4,286046996.8,N
1645963975.2,286047000.0,N
1645963995.0,286046996.9,N
1645963995.9,286046996.9,N
1645964015.8,286046999.2,N
1645964035.6,286047001.8,N
1645964055.5,286047004.8,N
1645964075.3,286047009.8,Y
1645964095.1,286047012.2,P
1645964115.9,286047013.8,N
1645964135.7,286047013.4,N
1645964155.5,286047008.1,N
1645964175.4,286047008.1,N
1645964195.2,286047010.4,N
1645964215.0,286047006.6,N
1645964216.0,286047006.6,N
1645964235.8,286047006.5,N
1645964255.6,286047007.5,N
1645964275.5,286047009.0,N
1645964295.3,286047005.2,N
1645964315.1,286047003.3,N
1645964335.9,286047008.9,N
1645964355.7,286047007.8,N
1645964375.6,286047011.1,Y
1645964395.4,286047005.2,P
1645964415.2,286047007.4,P
1645964435.1,286047012.3,P
1645964436.0,286047012.3,Y
1645964455.8,286047004.9,P
1645964475.6,286047003.4,N
1645964495.5,286047003.5,N
1645964515.3,286047005.0,N
1645964535.2,286047002.9,N
1645964555.9,286047001.0,N
1645964575.7,286046997.6,N
1645964595.6,286046998.8,N
1645964615.4,286047001.2,N
1645964635.2,286047000.6,N
1645964655.1,286047000.8,N
1645964656.0,286047000.8,N
1645964675.8,286046998.2,N
1645964695.7,286046996.6,N
1645964715.5,286047000.7,N
1645964735.3,286046998.6,N
1645964755.2,286047000.5,N
1645964775.9,286047002.6,N
1645964795.7,286046998.3,N
1645964815.6,286047002.0,N
1645964835.4,286046998.7,N
1645964855.2,286047000.6,N
1645964875.1,286046998.2,N
1645964876.0,286046998.2,N
1645964895.8,286046998.7,N
1645964915.7,286046999.2,N
1645964935.5,286046999.5,N
1645964955.3,286046996.6,N
1645964975.2,286046996.7,N
1645964995.0,286047000.2,N
1645964995.9,286047000.2,N
1645965015.7,286047001.3,N
1645965035.6,286047000.9,N
1645965055.4,286046999.8,N
1645965075.3,286046998.6,N
1645965095.1,286046996.7,N
1645965096.0,286046996.7,N
1645965115.8,286046995.8,N
1645965135.7,286046998.0,N
1645965155.5,286046999.6,N
1645965175.4,286046998.3,N
1645965195.2,286046998.7,N
1645965215.0,286047000.4,N
1645965215.9,286047000.4,N
1645965235.8,286046998.6,N
1645965255.6,286046998.0,N
1645965275.4,286046993.9,Y
1645965295.3,286046996.1,P
1645965315.1,286046992.0,P
1645965335.9,286046997.9,N
1645965355.7,286046995.2,N
1645965375.5,286046999.6,N
1645965395.4,286047000.7,N
1645965415.2,286047001.7,N
1645965435.0,286047002.1,N
1645965435.9,286047002.1,N
1645965455.8,286047001.5,N
1645965475.6,286047003.8,N
1645965495.5,286047004.2,N
1645965515.3,286046999.9,N
1645965535.1,286047001.4,N
1645965555.9,286047002.8,N
1645965575.7,286046997.7,N
1645965595.5,286046995.8,N
1645965615.4,286046995.2,N
1645965635.2,286046997.4,N
1645965655.1,286046999.3,N
1645965656.0,286046999.3,N
1645965675.8,286047000.2,N
1645965695.6,286047004.2,N
1645965715.5,286047001.3,N
1645965735.3,286047002.7,N
1645965755.1,286047005.2,N
1645965775.9,286047001.5,N
1645965795.7,286046998.3,N
1645965815.5,286046993.0,N
1645965835.4,286046979.2,Y
1645965855.2,286046970.4,P
1645965875.1,286046962.8,N
1645965876.0,286046962.8,N
1645965895.8,286046959.3,N
1645965915.6,286046959.9,N
1645965935.5,286046966.9,N
1645965955.3,286046969.8,N
1645965975.2,286046968.9,N
1645965995.9,286046963.8,Y
1645966015.7,286046996.2,P
1645966035.6,286046997.6,N
1645966055.4,286046997.3,N
1645966075.2,286046994.2,N
1645966095.1,286046996.7,N
1645966096.0,286046996.7,N
1645966115.8,286047003.8,N
1645966135.7,286046999.9,N
1645966155.5,286047003.0,N
1645966175.3,286047004.7,N
1645966195.2,286047005.1,N
1645966215.0,286046999.8,N
1645966215.9,286046999.8,N
1645966235.7,286047003.7,N
1645966255.6,286047013.3,N
1645966275.4,286047017.0,N
1645966295.3,286047017.1,N
1645966315.1,286047011.6,N
1645966316.0,286047011.6,N
1645966335.8,286047011.5,N
1645966355.7,286047013.2,N
1645966375.5,286047014.7,N
1645966395.3,286047017.6,N
1645966415.2,286047022.0,N
1645966435.0,286047021.5,N
1645966435.9,286047021.5,N
1645966455.8,286047024.7,N
1645966475.6,286047023.4,N
1645966495.4,286047021.3,N
1645966515.3,286047021.7,N
1645966535.1,286047021.8,N
1645966555.8,286047022.7,N
1645966575.7,286047024.0,N
1645966595.5,286047024.0,N
1645966615.4,286047037.5,Y
1645966635.2,286047019.5,P
1645966655.0,286047015.9,P
1645966655.9,286047015.9,P
1645966675.8,286047013.7,Y
1645966695.6,286046999.3,P
1645966715.5,286047002.8,N
1645966735.3,286047000.1,N
1645966755.1,286046998.9,N
1645966775.9,286046998.4,N
1645966795.7,286047001.9,N
